Weather History for West Palm Beach, FL

Change the Weather History Date:

Monday, January 20, 2014

  Actual Average Record
Temperature  
Mean Temperature 63 °F 66 °F  
Max Temperature 75 °F 75 °F 86 °F (1947)
Min Temperature 51 °F 57 °F 27 °F (1977)
Degree Days  
Heating Degree Days 2 3  
Month to date heating degree days 69 60  
Since 1 July heating degree days 73 131  
Cooling Degree Days 0 3  
Month to date cooling degree days 96 67  
Year to date cooling degree days 96 67  
Growing Degree Days 13 (Base 50)    
Moisture  
Dew Point 51 °F    
Average Humidity 64    
Maximum Humidity 89    
Minimum Humidity 38    
Precipitation  
Precipitation 0.00 in 0.09 in 5.16 in (1983)
Month to date precipitation 6.72 2.09  
Year to date precipitation 6.72 2.09  
Snow  
Snow 0.00 in - - ()
Month to date snowfall 0.0  
Since 1 July snowfall 0.0  
Snow Depth 0.00 in    
Sea Level Pressure  
Sea Level Pressure 30.11 in    
Wind  
Wind Speed 7 mph (WSW)    
Max Wind Speed 20 mph    
Max Gust Speed 23 mph    
Visibility 10 miles    
Events      
T = Trace of Precipitation, MM = Missing Value Source: NWS Daily Summary

Daily Weather History Graph

Daily Weather History Graph

Search for Another Location

Airport:

Trip Planner

Search our weather history database for the weather conditions in past years. The results will help you decide how hot, cold, wet, or windy it might be!

Date:

Astronomy

Jan. 20, 2014 Rise Set
Actual Time 7:09 AM EST 5:53 PM EST
Civil Twilight 6:44 AM EST 6:18 PM EST
Nautical Twilight 6:16 AM EST 6:46 PM EST
Astronomical Twilight 5:48 AM EST 7:14 PM EST
Moon 9:57 PM EST 9:35 AM EST
Length of Visible Light 11h 33m
Length of Day
10h 43m
Waning Gibbous, 83% of the Moon is Illuminated
Jan 20
Waning Gibbous
Jan 24
Last Quarter
Jan 30
New
Feb 6
First Quarter
Feb 14
Full

Hourly Weather History & Observations

Time (EST) Temp. Dew Point Humidity Pressure Visibility Wind Dir Wind Speed Gust Speed Precip Events Conditions
12:53 AM 55.0 °F 48.0 °F 77% 30.14 in 10.0 mi SSW 3.5 mph - N/A   Mostly Cloudy
1:53 AM 55.0 °F 48.0 °F 77% 30.13 in 10.0 mi SSW 8.1 mph - N/A   Partly Cloudy
2:53 AM 54.0 °F 48.0 °F 80% 30.13 in 10.0 mi SW 5.8 mph - N/A   Mostly Cloudy
3:53 AM 55.0 °F 48.0 °F 77% 30.12 in 10.0 mi Calm Calm - N/A   Scattered Clouds
4:53 AM 54.0 °F 48.9 °F 83% 30.13 in 10.0 mi WSW 4.6 mph - N/A   Scattered Clouds
5:53 AM 54.0 °F 48.9 °F 83% 30.14 in 10.0 mi SW 4.6 mph - N/A   Partly Cloudy
6:53 AM 53.1 °F 50.0 °F 89% 30.15 in 10.0 mi WSW 5.8 mph - N/A   Partly Cloudy
7:53 AM 55.0 °F 51.1 °F 86% 30.16 in 10.0 mi WSW 5.8 mph - N/A   Partly Cloudy
8:53 AM 61.0 °F 53.1 °F 75% 30.18 in 10.0 mi West 9.2 mph - N/A   Partly Cloudy
9:53 AM 64.9 °F 54.0 °F 68% 30.19 in 10.0 mi WNW 10.4 mph - N/A   Partly Cloudy
10:53 AM 69.1 °F 52.0 °F 54% 30.17 in 10.0 mi West 9.2 mph - N/A   Partly Cloudy
11:53 AM 70.0 °F 50.0 °F 49% 30.13 in 10.0 mi West 9.2 mph - N/A   Clear
12:53 PM 73.0 °F 48.0 °F 41% 30.09 in 10.0 mi West 13.8 mph - N/A   Partly Cloudy
1:53 PM 73.9 °F 46.0 °F 37% 30.06 in 10.0 mi West 10.4 mph - N/A   Partly Cloudy
2:53 PM 73.9 °F 48.0 °F 40% 30.04 in 10.0 mi WSW 10.4 mph - N/A   Scattered Clouds
3:53 PM 75.0 °F 50.0 °F 41% 30.04 in 10.0 mi West 8.1 mph - N/A   Scattered Clouds
4:53 PM 73.9 °F 51.1 °F 45% 30.05 in 10.0 mi WNW 10.4 mph - N/A   Scattered Clouds
5:53 PM 70.0 °F 51.1 °F 51% 30.05 in 10.0 mi NW 3.5 mph - N/A   Scattered Clouds
6:53 PM 70.0 °F 51.1 °F 51% 30.05 in 10.0 mi Calm Calm - N/A   Scattered Clouds
7:53 PM 69.1 °F 53.1 °F 57% 30.07 in 10.0 mi SSW 3.5 mph - N/A   Mostly Cloudy
8:53 PM 68.0 °F 55.0 °F 63% 30.07 in 10.0 mi SSW 6.9 mph - N/A   Scattered Clouds
9:53 PM 66.0 °F 55.9 °F 70% 30.09 in 10.0 mi WSW 8.1 mph - N/A   Mostly Cloudy
10:53 PM 64.9 °F 57.0 °F 75% 30.08 in 10.0 mi West 5.8 mph - N/A   Mostly Cloudy
11:53 PM 63.0 °F 55.9 °F 78% 30.06 in 10.0 mi West 4.6 mph - N/A   Mostly Cloudy